Location: Slidell
(30.2789°N, 89.7378°W)
Time: 00:23:44
(UTC-05:00)

Daily predictions for brighter satellites

Satellite Brightness Start Highest point End
(mag) Time Altitude Azimuth Time Altitude Azimuth Time Altitude Azimuth
Lacrosse 5 4.5 00:09:48 15° NNE 00:09:48 15° NNE 00:10:46 10° NNE
ATLAS 2AS CENTAUR R/B 4.4 00:35:21 10° N 00:41:59 27° NE 00:42:50 27° ENE
Milstar 3 Cent rocket 4.4 02:36:28 17° E 02:36:28 17° E 02:37:53 10° E
ATLAS 2AS CENTAUR R/B 3.9 02:25:40 10° NW 02:30:12 36° NW 02:30:12 36° NW
Cosmos 1656 4.4 03:03:16 51° NE 03:03:16 51° NE 03:07:33 10° NNE
Cosmos 1464 Rocket 4.3 03:08:20 58° NNW 03:08:20 58° NNW 03:13:27 10° N
ATLAS CENTAUR R/B 3.0 03:19:27 38° N 03:19:27 38° N 03:22:45 10° NNE
CZ-2D R/B 2.9 03:15:25 10° NNE 03:20:34 46° E 03:20:34 46° E
Cosmos 1697 Rocket 2.9 03:24:08 69° NE 03:24:08 69° NE 03:29:08 10° NNE
Cosmos 2082 4.0 03:25:18 10° NNW 03:29:43 56° NNW 03:29:43 56° NNW
Cosmos 1980 Rocket 2.6 03:31:22 53° ESE 03:31:31 53° ESE 03:36:58 10° NNE
Cosmos 2227 Rocket 2.8 03:36:23 10° NNW 03:40:20 44° NW 03:40:20 44° NW
Meteor 2-5 Rocket 4.2 03:36:25 10° NNW 03:41:11 51° WNW 03:41:11 51° WNW
Cosmos 2322 Rocket 4.1 03:40:27 17° SE 03:42:54 22° E 03:47:08 10° NE
Cosmos 1898 Rocket 4.1 03:40:42 10° NNW 03:44:32 46° NW 03:44:32 46° NW
Cosmos 841 Rocket 3.5 03:49:56 71° NW 03:49:56 71° NW 03:54:56 10° NNE
BREEZE-M R/B 4.4 03:47:58 10° NW 03:53:51 76° NE 04:01:57 10° SE
Cosmos 1076 Rocket 3.7 03:51:57 10° N 03:55:56 67° NE 03:55:56 67° NE
NOSS 3-4 (A) 4.1 03:49:14 10° NNW 03:56:20 69° ENE 04:03:49 10° SE
NOSS 3-4 (C) 4.1 03:49:21 10° NNW 03:56:28 68° ENE 04:03:59 10° SE
Cosmos 1763 Rocket 3.8 03:56:53 52° WNW 03:56:53 52° WNW 04:01:38 10° N
Cosmos 1937 Rocket 3.4 03:53:42 10° NNW 03:58:31 69° WNW 03:58:31 69° WNW
Resurs 1-4 Rocket 2.0 03:58:06 10° N 04:03:18 63° WNW 04:03:34 62° W
Cosmos 2297 Rocket 2.2 03:57:55 10° NNW 04:03:14 59° W 04:03:14 59° W
Okean O Rocket 2.5 04:01:09 10° NNE 04:05:22 44° E 04:06:37 35° SE
ARIANE 5 R/B 3.2 04:05:35 10° N 04:10:12 38° WNW 04:10:12 38° WNW
Cosmos 2360 4.1 04:10:13 50° SSW 04:11:47 85° ESE 04:17:30 10° NNE
SL-16 R/B 2.4 04:10:04 42° SSW 04:12:10 67° WSW 04:18:18 10° NNW
SL-16 R/B 3.1 04:12:14 23° SSE 04:15:21 43° ESE 04:20:41 10° NE
Cosmos-2242 2.9 04:16:24 67° WNW 04:16:24 67° WNW 04:20:39 10° N
Cosmos 1378 4.3 04:13:31 10° NNW 04:15:54 34° NW 04:15:54 34° NW
Cosmos 332 Rocket 4.0 04:17:16 42° S 04:18:45 67° ESE 04:23:32 10° NNE
UNKNOWN OBJECT B 3.4 04:19:30 10° N 04:22:43 42° NW 04:22:43 42° NW
Cosmos 1408 Rocket 3.7 04:19:39 10° NNW 04:23:51 53° W 04:23:51 53° W
Cosmos 1758 3.6 04:24:54 51° WNW 04:24:54 51° WNW 04:28:36 10° N
Nadezhda 4 Rocket 4.3 04:19:34 10° NNW 04:25:24 44° W 04:26:52 38° SW
Cosmos 1766 Rocket 3.6 04:22:16 10° NNW 04:26:34 54° W 04:26:48 54° WSW
Cosmos 540 Rocket 3.4 04:24:51 41° SSW 04:26:42 90° WNW 04:31:53 10° NNE
Meteor 1-24 Rocket 4.3 04:22:51 10° NNW 04:28:08 38° W 04:28:53 37° WSW
Cosmos 1655 Rocket 4.4 04:22:16 10° N 04:28:38 65° E 04:34:56 10° SSE
EO 1 Del DPAF 4.0 04:30:13 37° WNW 04:30:13 37° WNW 04:33:05 10° NNW
Cosmos 1953 2.8 04:30:12 42° WNW 04:30:12 42° WNW 04:33:49 10° N
Delta 7925 Rocket 4.1 04:32:04 35° SSW 04:32:13 36° SSW 04:36:46 10° SE
GPS 2-04 Rocket1 3.9 04:32:32 21° NW 04:34:39 36° N 04:38:12 10° ENE
Cosmos 1805 3.9 04:36:32 38° WNW 04:36:32 38° WNW 04:40:04 10° NNW
PAYLOAD B 4.2 04:31:40 10° NNE 04:37:17 86° ESE 04:41:05 21° SSW
ISS -1.2 04:34:28 10° NNW 04:37:21 29° NE 04:40:14 10° ESE
Cosmos 371 Rocket 3.4 04:36:19 26° S 04:38:59 72° ESE 04:43:47 10° NNE
Cosmos 1441 Rocket 4.2 04:37:39 10° NNW 04:40:41 31° WNW 04:40:41 31° WNW
CZ-4B R/B 3.1 04:36:19 10° NNE 04:41:51 90° WNW 04:45:37 21° SSW
Cosmos 1842 Rocket 3.5 04:40:08 33° SSW 04:42:03 73° W 04:46:32 10° N
Cosmos 1733 3.5 04:42:05 21° S 04:44:26 62° E 04:48:11 10° NNE
Okean-O 3.7 04:44:28 10° NNE 04:48:41 42° E 04:52:53 10° S
SL-24 R/B - RUBIN 2 4.3 04:46:07 29° SW 04:48:57 66° WNW 04:55:06 10° NNE
Cosmos 2227 4.3 04:45:10 10° NNW 04:50:57 82° ENE 04:56:41 10° SSE
Cosmos 2180 Rocket 4.5 04:48:00 13° S 04:53:51 80° W 05:00:16 10° N
Cosmos 2026 Rocket 4.0 04:50:22 10° NNW 04:56:38 66° W 05:02:46 10° S
USA 81 4.4 04:56:21 23° SW 04:59:20 45° W 05:04:23 10° NNW
BREEZE-M DEB (TANK) 4.4 04:44:19 18° SW 04:59:47 88° SE 05:04:42 10° NE
CZ-2D R/B 3.7 04:56:45 10° NNW 05:00:16 18° WNW 05:01:54 16° W
ASTRO E2 2.9 04:58:28 26° W 05:00:24 52° SSW 05:04:21 10° ESE
Aureole 1 Rocket 4.0 04:59:01 22° SW 05:02:33 57° WNW 05:09:25 10° N
CZ-2C R/B 3.9 05:01:07 10° S 05:05:43 53° W 05:10:17 10° NNW
Cosmos 1544 4.2 05:05:42 23° W 05:06:27 25° W 05:09:31 10° NNW
Delta R/B 4.4 05:06:32 14° S 05:06:32 14° S 05:08:25 10° SE
Aurora 2 Rocket 2.8 05:07:02 25° SSW 05:07:41 27° S 05:10:33 10° SE
RESURS DK-1 3.1 05:05:01 10° NNW 05:09:04 56° ENE 05:13:07 10° SSE
Milstar 3 Cent rocket 2.8 05:05:20 15° W 05:10:02 75° S 05:20:35 10° ESE
DELTA 2 R/B (1) 3.6 05:09:50 19° WSW 05:13:55 87° NNW 05:19:33 10° ENE
Cosmos 1461 3.6 05:10:24 10° NNW 05:14:24 55° ENE 05:18:14 10° SE
ADEOS II 2.4 05:09:13 10° NNE 05:14:27 67° ESE 05:19:40 10° S
Cosmos 1980 Rocket 3.9 05:13:09 13° W 05:15:47 17° WNW 05:19:20 10° NNW
Cosmos 2360 Rocket 2.9 05:10:33 10° S 05:16:00 55° ESE 05:21:29 10° NNE
Feng Yun 1-1 Rocket 4.3 05:10:43 10° NNE 05:16:18 80° ESE 05:21:45 10° S
GEOS 3 Rocket 4.3 05:14:44 10° S 05:19:15 30° WSW 05:23:46 10° NW
Meteor 2-20 4.5 05:15:07 10° N 05:21:13 90° WSW 05:27:20 10° S
Cosmos 1674 3.1 05:20:34 10° NNW 05:24:06 40° W 05:27:37 10° SSW
USA 116 3.8 05:21:23 10° SSE 05:24:25 57° ENE 05:27:37 10° N
Cosmos 372 Rocket 3.9 05:21:24 10° NNW 05:26:26 64° WSW 05:31:28 10° S
Cosmos 2322 Rocket 2.9 05:22:19 14° SW 05:26:38 36° WNW 05:31:46 10° N
Cosmos 1470 4.2 05:29:54 13° WSW 05:32:11 20° WNW 05:35:10 10° NNW
Cosmos 1125 Rocket 4.3 05:29:34 10° NW 05:33:58 29° W 05:38:22 10° SSW
Cosmos 2151 3.0 05:30:05 10° NNW 05:34:20 60° W 05:38:33 10° S
Cosmos 2228 Rocket 4.3 05:30:14 10° SSE 05:34:28 46° E 05:38:47 10° NNE
SL-14 R/B 4.0 05:32:45 10° N 05:36:36 56° E 05:40:23 10° SSE
CZ-4B R/B 4.5 05:35:48 10° NNW 05:38:21 17° WNW 05:40:50 10° WSW
Okean O Rocket 3.6 05:39:29 10° NW 05:41:18 12° WNW 05:43:08 10° W
SWIFT 4.4 05:41:56 10° SSW 05:43:10 11° SSW 05:44:24 10° S
Meteor PRIRODA 3.9 05:41:09 10° N 05:44:41 48° WNW 05:48:14 10° SSW
ADEOS Rocket 3.4 05:40:57 10° N 05:47:33 67° WNW 05:54:50 10° SSW
Cosmos 304 Rocket 3.8 05:44:00 10° SSW 05:48:48 80° WNW 05:53:38 10° NNE
CZ-3 R/B 2.7 05:30:32 10° WSW 05:54:35 76° S 06:00:06 10° E
